Location: Владивосток
(43.1151°N, 131.8856°E)
Time: 23:05:58
(UTC+10:00)

CUTE 1.7 + AOD 2 - Visible Passes

Search period start: 13 April 2024 00:00
Search period end: 23 April 2024 00:00
Orbit: 572 x 588 km, 97.8° (Epoch: 13 April)

Date Brightness Start Highest point End Pass type
(mag) Time Alt. Az. Time Alt. Az. Time Alt. Az.
13 Apr ? 04:29:54 10° NNE 04:33:55 51° E 04:36:03 25° SSE visible
14 Apr ? 04:34:51 10° NNE 04:38:54 59° E 04:41:13 24° S visible
15 Apr ? 04:39:48 10° NNE 04:43:53 68° ESE 04:46:21 23° S visible
16 Apr ? 04:44:45 10° NNE 04:48:52 78° ESE 04:51:30 21° S visible
17 Apr ? 04:49:42 10° NNE 04:53:48 88° E 04:56:37 20° SSW visible
18 Apr ? 04:54:39 10° N 04:58:45 81° WNW 05:01:44 18° SSW visible
19 Apr ? 04:59:35 10° N 05:03:40 71° WNW 05:06:50 16° SSW visible
20 Apr ? 03:31:45 10° ENE 03:32:52 11° E 03:33:59 10° ESE visible
20 Apr ? 05:04:32 10° N 05:08:35 62° WNW 05:11:56 15° SSW visible
21 Apr ? 03:36:04 10° ENE 03:37:50 12° E 03:39:36 10° ESE visible
21 Apr ? 05:09:30 10° N 05:13:30 54° WNW 05:17:00 13° SSW visible
22 Apr ? 03:40:34 10° ENE 03:42:48 14° E 03:45:00 10° SE visible
22 Apr ? 05:14:27 10° N 05:18:23 48° WNW 05:22:05 11° SW visible
